Regional Weather Roundup
Issued by NWS Upton, NY

Current Version | Previous Version | Graphics & Text | Print | Product List | Glossary Off
Versions: 1 2 3 4 5 6 7 8 9 10 11 12 13 14 15 16 17 18 19 20 21 22 23 24 25 26 27 28 29 30 31 32 33 34 35 36 37 38 39 40 41 42 43 44 45 46 47 48 49 50

000
ASUS41 KOKX 190707
RWROKX

REGIONAL WEATHER ROUNDUP
NATIONAL WEATHER SERVICE NEW YORK NY
300 AM EDT SUN APR 19 2015

NOTE: "FAIR" INDICATES FEW OR NO CLOUDS BELOW 12,000 FEET WITH NO
SIGNIFICANT WEATHER AND/OR OBSTRUCTIONS TO VISIBILITY.

NYZ071-072-176-178-NJZ106-104-190800-
NEW YORK CITY METRO AREA


CITY           SKY/WX    TMP DP  RH WIND       PRES   REMARKS
CENTRAL PARK   CLEAR     59  20  22 NE8G20    30.14R
LAGUARDIA APRT PTCLDY    56  25  30 NE6       30.11R
KENNEDY INTL   MOCLDY    58  18  21 N13       30.12R
NEWARK/LIBERTY PTCLDY    59  24  26 NE14      30.12R
BRNX BOT. GARD   N/A     55  23  28 N9        30.15R
TETERBORO      CLEAR     57  20  23 NE7       30.11R
$$

NYZ177-179-078>081-190800-
LONG ISLAND NEW YORK

CITY           SKY/WX    TMP DP  RH WIND       PRES   REMARKS
FARMINGDALE    PTCLDY    56  23  27 N10       30.10R
ISLIP          PTCLDY    52  29  41 NE8       30.10R
SHIRLEY        PTCLDY    47  34  60 CALM      30.12R
WESTHAMPTON    PTCLDY    47  37  68 E3        30.13R
MONTAUK POINT    N/A     48  40  73 NE6       30.12R
$$

NYZ052-065-067-190800-
HUDSON VALLEY

CITY           SKY/WX    TMP DP  RH WIND       PRES   REMARKS
WHITE PLAINS   CLEAR     53  19  26 N6        30.11R
NEWBURGH       CLEAR     52  25  35 NE12      30.14R
MONTGOMERY     PTCLDY    46  27  47 N5        30.12R
POUGHKEEPSIE   CLEAR     49  24  37 N7        30.13R
ALBANY         CLEAR     44  33  65 N7        30.19R
$$

NJZ001-105-106-008-010-013-015-019>022-104-190800-
NEW JERSEY

CITY           SKY/WX    TMP DP  RH WIND       PRES   REMARKS
NEWARK/LIBERTY PTCLDY    59  24  26 NE14      30.12R
TETERBORO      CLEAR     57  20  23 NE7       30.11R
CALDWELL       CLEAR     56  23  27 E5        30.12R
MORRISTOWN     PTCLDY    54  21  28 N3        30.12R
SOMERVILLE     PTCLDY    50  27  40 CALM      30.10R
SUSSEX         PTCLDY    49  26  41 NE6       30.13R
ANDOVER          N/A     50  25  37 CALM      30.12R
TRENTON        PTCLDY    57  24  28 N5        30.10R
MILLVILLE      PTCLDY    61  34  36 NE9       30.08R
ATLANTIC CITY  PTCLDY    55  41  59 NE7       30.09R
WRIGHTSTOWN    PTCLDY    55  26  33 NE5       30.07R
TOMS RIVER     PTCLDY    46  39  76 CALM      30.10R
BELMAR         PTCLDY    57  30  35 NE8       30.10S
$$

PAZ047>061-062-071-190800-
EASTERN PENNSYLVANIA

CITY           SKY/WX    TMP DP  RH WIND       PRES   REMARKS
PHILADELPHIA   PTCLDY    63  25  23 NE15      30.11R
ALLENTOWN      MOCLDY    52  27  38 NE6       30.12R
SCRANTON       PTCLDY    50  25  37 NE3       30.12R
$$

CTZ002-004>006-009-010-012-RIZ004-006-007-MAZ004-011-015-190800-
SOUTHERN NEW ENGLAND
 IN CT

CITY           SKY/WX    TMP DP  RH WIND       PRES   REMARKS
BRADLEY INTL   CLEAR     49  27  42 N7        30.12S
HARTFORD       CLEAR     51  31  46 VRB5      30.13R
DANBURY        CLEAR     51  22  31 N9        30.13R
WTRBRY/OXFORD  CLEAR     48  23  37 N13       30.13R
BRIDGEPORT     CLEAR     55  22  27 N6        30.12R
MERIDEN        CLEAR     53  25  33 N7        30.12R
NEW HAVEN      PTCLDY    52  26  36 N6        30.12R
CHESTER        FAIR      52  32  46 N7        30.11S
GROTON         CLEAR     44  39  82 CALM      30.11R
WILLIMANTIC    CLEAR     50  30  46 N7        30.12R

 IN RI

CITY           SKY/WX    TMP DP  RH WIND       PRES   REMARKS
PROVIDENCE     CLEAR     46  36  68 N9        30.12R
BLOCK ISLAND   PTCLDY    45  37  76 NE6       30.11R
WESTERLY       CLEAR     44  40  85 CALM      30.11S

 IN MA

CITY           SKY/WX    TMP DP  RH WIND       PRES   REMARKS
BOSTON         CLEAR     46  32  58 NW17G24   30.12R
WORCESTER      CLEAR     45  31  58 N9        30.12R
WESTFIELD      CLEAR     45  29  53 CALM      30.13R
PROVINCETOWN   CLEAR     41  37  87 W7        30.11R
NANTUCKET      CLEAR     42  39  89 NW7       30.09R
$$

ANZ330-335-338-340-345-350-353-355-190800-
COASTAL MARINE OBSERVATIONS


STATION/POSITION TIME  SKY/WX   TEMP    WIND        PRES    VSBY  WAVE
                                AIR SEA DIR/SP/G                  HT/PER
                 (UTC)          (F)     (DEG/KT/KT) (MB)    (MI)  (FT/S)
NY HARB ENTRANCE 0650            54 48   10/ 12/ 12 1018.9          2/12
4S FIRE IS       0603               45                N/A           3/ 7
20S FIRE ISLAND  0550               44              1018.7          2/ 7
23SW MTP         NOT AVBL
HUDSON CANYON    NOT AVBL
EXECUTION ROCKS  NOT AVBL
WESTERN LI SOUND NOT AVBL
CENTRAL LI SOUND NOT AVBL
EASTERN LI SOUND 0600            45      40/  4/  6   N/A
ROBBINS REEF     0612            61                   N/A
$$


>>>>>>>>>>>>>>>>>>>>>>>>>>>> KEY <<<<<<<<<<<<<<<<<<<<<<<<<<<
>                                                          <
>     SKY/WX - SKY CONDITION/PRESENT WEATHER               <
>     TMP    - TEMPERATURE IN FAHRENHEIT                   <
>     DP     - DEWPOINT IN FAHRENHEIT                      <
>     RH     - RELATIVE HUMIDITY IN PERCENT                <
>     WIND   - DIRECTION AND SPEED IN MPH                  <
>     PRES   - MEAN SEA LEVEL PRESSURE IN INCHES OF HG     <
>     WCI    - WIND CHILL INDEX                            <
>     VSB    - VISIBILITY IN MILES                         <
>     HX     - HEAT INDEX                                  <
>     TC     - TEMPERATURE IN CELSIUS                      <
>     VRB    - VARIABLE WIND DIRECTION                     <
>                                                          <
>>>>>>>>>>>>>>>>>>>>>>>>>>>> KEY <<<<<<<<<<<<<<<<<<<<<<<<<<<




USA.gov is the U.S. government's official web portal to all federal, state and local government web resources and services.